This is the latest recevied weather packets stored in our database for station/object HB9ZRH-10. If no packets are shown the sender has not sent any weather packets the latest 10 day(s).
| Time | Temp. | Humidity | Pressure | Rain* | Wind** | Luminosity | Snow |
|---|---|---|---|---|---|---|---|
| 1777523690 | 15.56° C | 45% | 1020.4 hPa | - | - | - | - |
| 1777523390 | 16.11° C | 45% | 1020.5 hPa | - | - | - | - |
| 1777523090 | 16.67° C | 44% | 1020.3 hPa | - | - | - | - |
| 1777522790 | 17.22° C | 44% | 1020.3 hPa | - | - | - | - |
| 1777522490 | 16.11° C | 44% | 1020.3 hPa | - | - | - | - |
| 1777522190 | 16.67° C | 43% | 1020.2 hPa | - | - | - | - |
| 1777521890 | 18.33° C | 43% | 1020 hPa | - | - | - | - |
| 1777521590 | 17.22° C | 44% | 1019.8 hPa | - | - | - | - |
| 1777521290 | 18.33° C | 43% | 1019.9 hPa | - | - | - | - |
| 1777520990 | 17.22° C | 44% | 1019.8 hPa | - | - | - | - |
| 1777520690 | 18.33° C | 42% | 1019.9 hPa | - | - | - | - |
| 1777520390 | 17.78° C | 43% | 1019.9 hPa | - | - | - | - |
| 1777520090 | 16.11° C | 44% | 1020.1 hPa | - | - | - | - |
| 1777519791 | 15.56° C | 45% | 1020.2 hPa | - | - | - | - |
| 1777519490 | 15° C | 45% | 1020.2 hPa | - | - | - | - |
| 1777519190 | 17.22° C | 43% | 1020.2 hPa | - | - | - | - |
| 1777518890 | 18.33° C | 43% | 1020.2 hPa | - | - | - | - |
| 1777518590 | 17.22° C | 43% | 1020.3 hPa | - | - | - | - |
| 1777518290 | 17.22° C | 43% | 1020.1 hPa | - | - | - | - |
| 1777517990 | 17.78° C | 43% | 1020.1 hPa | - | - | - | - |
| 1777517690 | 18.89° C | 42% | 1020.1 hPa | - | - | - | - |
| 1777517390 | 18.89° C | 42% | 1020.1 hPa | - | - | - | - |
| 1777517090 | 19.44° C | 42% | 1019.9 hPa | - | - | - | - |
| 1777516790 | 19.44° C | 42% | 1020 hPa | - | - | - | - |
| 1777516490 | 18.33° C | 43% | 1020.1 hPa | - | - | - | - |
* Rain since midnight (hover to see other rain measurements)
** Current wind speed in m/s (hover to see current wind gust speed)